User: anonymous   Login
Location: Banios
(43.0451°N, 0.2335°E)
Time: 13:53:06
(UTC+00:00)
Language:

Cosmos 1400 Rocket - Orbit

View from above orbital plane
View from above orbital plane
View from above satellite
View from above satellite

Ground track
Ground track

The orbit data is extracted from the following two-line orbital elements,

1 13403U 82079B   21107.91637608  .00000430  00000-0  26568-4 0  9996
2 13403  81.1648 103.9608 0033092 341.7080  18.2950 15.07369073107473
Epoch (UTC): 17 April 2021 21:59:34
Eccentricity: 0.0033092
inclination: 81.1648°
perigee height: 521 km
apogee height: 567 km
right ascension of ascending node: 103.9608°
argument of perigee: 341.7080°
revolutions per day: 15.07369073
mean anomaly at epoch: 18.2950°
orbit number at epoch: 10747

The dashed part of the orbit path shows where the satellite is in the earth's shadow,  

DLR